Dewpoint
72 72 72 71 72 71 71 71 71 71 71 71 70 70 70 71 70 71 71 71 71 71 72 72 72 72 71 72 72 73 74 73 74 76 76 75 76 75 76 75 76 76 76 75 75 73 75 74 75 75 76 76 76 74 72 74 73 72 72 72 71 72 71 71 70 69 71 74 72 71 71 70 69 70 69 69 68 69 70 69 70 68 67 66 66
71 71 71 71 71 71 71 71 71 71 70 70 70 70 70 70 70 71 70 71 71 70 73 71 72 72 71 71 71 72 74 74 74 74 75 75 77 75 75 76 75 75 75 75 75 75 73 73 74 74 75 74 73 73 71 71 71 70 71 70 70 71 71 69 69 70 69 71 71 73 71 72 70 70 69 69 69 71 69 69 69 68 66 65 65
70 70 70 70 70 71 70 70 70 70 69 68 69 68 68 69 71 70 69 70 70 71 71 70 72 72 71 71 71 73 74 73 74 74 74 75 75 75 75 75 75 76 76 75 75 75 74 74 74 74 72 71 71 70 70 70 69 70 69 69 68 69 70 70 70 70 70 69 71 70 70 71 70 69 70 70 71 71 70 69 67 67 68 67 66
69 70 70 69 68 69 69 69 69 69 68 68 67 67 67 67 71 69 68 68 69 70 71 70 72 72 71 73 73 73 74 74 74 73 74 75 75 75 74 75 75 76 75 75 74 73 73 73 71 71 71 71 72 71 70 69 66 68 68 68 69 68 70 70 72 70 68 69 71 71 71 70 70 71 71 72 71 71 69 70 70 68 68 68 68
69 68 69 69 68 68 68 68 68 68 68 67 67 66 66 66 69 68 68 67 68 69 71 70 72 72 70 73 73 73 73 74 74 73 74 74 74 74 75 74 74 74 73 73 76 73 72 72 71 71 71 70 69 69 68 68 68 68 68 70 71 71 73 72 72 72 70 68 68 71 72 72 72 71 72 72 68 68 69 70 70 70 71 71 70
68 67 69 68 68 68 67 67 67 67 67 66 66 65 66 65 66 68 67 67 68 67 69 70 72 73 71 72 73 74 74 74 74 74 72 72 74 74 75 74 73 73 73 74 74 74 72 72 72 71 69 69 69 70 70 69 70 66 65 66 67 72 70 68 69 68 70 70 69 70 71 71 69 70 68 70 70 70 70 71 71 71 71 71 71
68 67 68 70 68 68 69 66 66 66 67 66 65 64 64 64 64 67 68 67 67 67 67 70 72 72 73 72 72 73 74 74 74 74 73 73 73 73 72 72 73 72 73 72 72 72 71 70 70 70 70 69 69 68 69 70 70 69 69 70 71 71 71 70 72 71 70 68 69 68 68 69 69 67 69 72 72 71 70 70 71 72 72 72 72
69 69 68 69 70 68 69 70 69 70 70 70 68 67 65 63 63 64 67 67 67 67 68 68 70 72 72 72 72 73 74 73 74 75 74 72 72 73 72 72 72 72 72 72 71 69 69 69 68 69 70 70 69 68 69 68 69 70 71 72 71 70 70 71 71 70 69 70 69 69 69 68 69 71 73 71 70 71 72 72 71 71 72 73 73
73 73 72 73 73 72 72 74 73 74 75 75 75 71 70 70 72 70 68 68 67 70 68 68 69 70 73 73 72 72 72 73 72 74 74 74 72 71 72 73 73 72 72 72 71 72 71 69 67 66 70 76 72 74 73 73 70 69 70 70 71 70 71 72 71 71 71 71 71 71 70 68 68 68 69 69 69 70 72 73 72 72 73 72 72
75 74 73 73 73 73 73 74 74 74 74 74 74 75 73 74 73 72 71 69 68 70 69 70 69 69 70 70 71 71 71 69 73 75 75 73 72 71 71 72 71 72 73 72 71 71 69 68 67 70 72 68 69 71 76 76 75 69 68 71 71 71 72 71 70 70 70 69 70 69 68 68 68 70 70 71 71 73 73 73 72 72 72 71 71
75 75 72 71 71 72 73 73 74 73 74 73 74 74 75 75 75 74 72 72 71 71 69 69 71 71 71 70 70 70 71 71 69 65 66 71 73 71 72 74 73 71 71 72 72 71 71 69 68 70 75 76 74 78 76 75 76 76 76 77 76 71 70 69 68 68 68 68 69 69 69 68 69 71 72 72 73 73 73 73 72 72 71 70 69
72 72 71 71 72 72 73 73 72 72 73 72 72 73 73 73 73 73 73 71 71 70 69 70 71 73 73 71 71 71 69 71 63 64 66 66 71 72 71 71 71 72 72 71 71 71 69 67 66 64 68 74 75 75 77 78 76 77 77 77 77 76 75 71 69 69 69 68 68 69 69 69 69 71 72 73 73 73 73 72 72 71 71 70 70
71 71 72 72 72 72 73 73 73 72 72 72 71 72 72 73 73 73 74 73 73 72 71 71 71 71 72 70 70 71 69 67 62 64 65 65 66 72 70 69 69 69 69 70 70 70 70 71 71 72 73 76 74 74 76 77 79 76 77 77 77 76 71 71 72 72 70 70 70 70 69 69 69 71 74 74 74 73 72 71 71 71 71 70 70
70 70 71 71 71 72 73 72 72 72 72 72 72 72 72 73 74 74 74 73 73 73 73 72 72 73 74 72 71 70 68 64 62 63 63 64 66 69 68 69 68 66 67 69 71 74 74 74 73 72 69 67 67 69 72 74 76 76 76 75 76 78 77 71 70 71 72 71 70 70 71 73 73 73 75 75 73 72 71 70 70 70 70 70 71
69 69 69 69 70 70 71 72 72 72 71 72 72 72 72 73 74 73 73 73 72 72 73 72 72 73 73 73 70 66 64 60 60 61 61 62 64 73 71 74 72 70 71 72 74 75 76 76 73 69 66 65 66 69 70 72 74 76 75 75 75 75 75 76 76 75 73 72 72 72 73 74 75 75 73 72 72 72 72 71 71 71 72 72 72
67 68 68 68 68 69 69 69 69 70 70 70 70 70 70 70 72 72 73 73 72 72 72 72 72 73 73 73 70 67 63 58 58 59 60 61 67 73 73 72 73 72 73 73 74 75 75 74 70 66 65 64 65 64 69 73 74 74 73 73 74 74 75 78 73 73 75 73 74 74 73 73 70 72 72 71 71 71 71 72 71 70 70 70 71
67 67 67 67 68 68 68 68 68 68 68 69 69 70 70 71 71 72 72 72 71 71 71 71 72 72 72 72 70 64 60 57 55 56 57 59 69 73 74 75 73 73 73 74 74 74 73 71 68 66 65 65 64 59 63 72 71 71 71 71 71 72 73 72 69 67 66 66 65 65 63 62 62 62 61 61 65 67 68 68 67 69 70 69 70
64 65 66 66 67 67 67 67 67 67 68 68 69 69 70 70 70 70 70 71 71 71 72 71 72 72 72 72 66 62 59 58 54 53 55 57 66 72 73 74 74 74 73 73 73 73 74 74 70 66 65 64 60 59 61 69 68 69 69 68 69 69 70 66 67 66 66 66 66 64 64 63 63 62 62 62 62 65 68 67 68 70 70 70 69
62 63 63 64 65 66 66 67 67 67 67 67 68 67 68 69 70 70 70 70 70 71 71 70 70 71 70 69 67 63 61 59 54 53 54 56 65 71 74 74 73 73 73 73 73 71 71 72 71 68 66 64 57 58 60 66 67 67 66 66 67 67 67 65 65 67 69 69 69 69 69 69 71 70 70 68 67 71 69 69 70 71 70 69 70
60 63 64 63 63 64 67 67 66 65 65 64 65 67 68 68 69 70 70 70 70 70 70 70 70 70 68 65 64 64 63 61 59 53 52 54 59 72 72 72 72 72 73 73 73 70 68 68 67 62 59 58 56 56 57 59 63 65 66 66 66 67 65 64 68 70 70 70 70 70 70 70 70 70 69 67 69 73 72 73 69 67 66 67 68
59 58 57 56 57 59 61 65 63 65 66 66 66 67 67 67 68 69 69 70 69 69 70 68 67 66 66 66 66 65 63 62 61 53 52 52 55 62 65 67 69 70 71 71 71 71 71 70 68 63 58 57 56 55 54 56 61 64 64 64 64 66 65 65 67 70 68 69 70 71 70 70 69 66 66 66 67 65 65 65 66 66 66 67 68
56 56 58 57 55 55 58 62 65 65 67 67 67 67 68 68 69 69 69 68 68 68 68 67 65 64 64 64 64 64 64 63 62 57 53 52 52 55 59 60 62 70 70 70 71 71 71 71 70 66 58 57 55 53 52 53 57 62 63 59 59 59 63 66 66 67 68 70 70 70 70 69 64 64 66 64 62 64 63 64 65 66 67 68 70
60 59 57 56 58 57 58 57 59 63 65 67 66 67 68 68 68 68 67 67 67 66 66 65 64 63 63 63 63 63 63 62 61 61 56 53 53 54 55 59 57 64 66 67 68 69 68 69 68 64 55 52 49 50 51 53 57 59 56 56 56 58 65 65 66 67 68 69 70 68 68 63 62 62 63 62 61 63 63 65 66 68 69 72 72
59 60 59 58 57 57 56 57 56 57 58 63 65 66 67 68 68 68 67 67 66 66 65 65 64 61 59 61 61 62 62 63 61 61 59 56 54 54 54 54 55 60 64 64 65 63 63 62 64 55 50 49 49 50 52 55 59 55 54 55 57 63 64 65 65 67 68 68 67 66 62 61 60 60 61 62 62 63 65 66 66 67 68 66 63
60 60 55 53 52 54 56 54 56 56 57 57 56 60 63 62 60 59 63 66 66 65 66 66 65 62 60 59 60 60 61 60 61 61 61 61 56 55 56 56 57 58 64 64 65 64 60 55 54 53 54 52 52 53 54 56 53 52 52 54 62 64 65 65 66 68 68 66 64 61 59 59 60 61 61 63 65 65 64 65 66 65 62 61 61
57 58 56 54 50 52 53 53 55 55 54 54 59 61 58 57 56 56 53 54 56 63 66 65 65 64 61 61 61 61 62 61 60 59 60 61 62 60 58 58 66 67 66 62 60 59 58 57 57 57 58 59 62 63 63 65 65 62 60 61 64 65 65 66 67 67 64 60 60 59 58 58 58 61 64 64 60 60 64 61 59 58 58 58 60
59 60 56 54 57 53 55 55 52 53 51 51 53 58 61 58 52 54 53 52 53 57 56 58 60 60 61 59 56 56 55 55 55 55 55 54 55 57 60 59 61 62 61 59 58 59 62 64 63 59 58 59 59 60 60 62 63 63 62 64 66 66 67 67 63 59 60 60 58 57 58 60 62 60 58 58 60 63 60 59 56 56 58 59 61
54 53 54 59 58 54 60 61 58 55 52 53 56 57 55 51 50 54 55 56 55 57 56 58 58 58 58 58 56 55 54 54 53 52 53 53 53 53 56 57 55 57 57 56 55 57 60 62 61 63 64 64 64 64 64 63 64 64 64 65 66 68 67 64 63 60 59 59 58 59 59 58 56 56 57 58 61 58 58 57 57 57 60 62 59
56 51 52 53 54 57 56 57 57 54 54 54 54 54 54 56 54 53 55 56 55 51 52 57 59 58 56 57 57 56 54 54 54 49 52 48 50 51 52 52 53 54 56 52 55 58 59 60 60 61 61 62 62 62 63 64 64 64 63 65 60 58 59 58 57 58 58 58 58 58 57 56 56 57 58 58 58 57 56 56 57 59 59 58 56
57 52 54 54 54 53 54 55 57 57 53 52 53 54 54 49 53 56 55 55 49 45 49 54 56 54 52 53 55 54 54 54 49 45 43 43 43 43 44 42 42 48 50 50 55 56 58 57 58 58 59 59 59 59 60 64 65 65 64 59 58 57 57 58 58 58 58 59 58 56 56 56 56 57 57 56 56 56 56 57 58 58 57 56 55
58 56 55 56 57 55 55 54 56 58 58 59 56 55 53 53 43 45 50 50 46 41 40 41 47 53 54 50 52 49 49 46 43 43 43 43 42 42 41 41 41 41 43 53 55 55 56 57 58 58 58 57 56 56 57 56 56 57 56 57 58 58 58 57 58 58 58 56 56 56 55 55 56 57 56 56 56 56 57 58 58 57 56 55 56
58 58 58 58 59 59 56 58 58 58 57 58 57 58 53 54 54 46 42 47 46 42 40 39 39 42 47 53 54 52 46 42 41 42 42 42 42 41 40 40 41 41 42 46 55 55 57 57 57 57 57 56 55 58 56 55 56 55 55 57 58 58 56 56 57 57 56 55 55 54 54 54 56 56 55 55 57 57 56 56 55 55 56 56 55
54 55 57 57 58 58 59 58 57 56 57 58 57 57 57 55 54 54 55 44 42 41 40 41 40 40 41 41 44 46 47 45 40 39 39 39 40 40 39 41 43 41 44 52 55 56 56 57 56 57 57 56 55 56 58 57 57 57 57 58 59 58 57 58 57 56 56 54 54 54 54 55 56 56 55 56 57 54 55 54 54 54 54 53 54
53 54 55 57 58 57 56 56 57 57 57 57 57 56 57 59 57 57 54 53 54 50 44 41 41 43 41 40 39 40 39 40 42 42 41 39 39 41 40 46 45 41 47 52 54 54 55 56 57 58 58 58 57 57 57 57 58 56 56 56 56 56 56 56 54 54 54 54 54 54 54 54 55 55 55 55 55 54 53 53 53 52 52 52 51
54 55 54 56 58 56 54 55 56 55 55 55 56 56 57 55 56 56 57 56 56 54 52 54 45 41 47 47 45 40 37 37 39 40 41 41 41 40 45 52 54 53 52 52 54 54 55 57 58 58 57 57 57 57 57 57 57 58 57 56 56 55 55 54 55 55 54 53 53 53 53 54 55 56 54 53 52 52 52 51 52 52 50 49 48
54 55 57 57 57 56 56 55 55 55 52 53 55 56 55 55 57 56 54 58 58 57 55 54 53 49 46 44 42 39 38 38 39 40 41 41 41 44 51 51 53 55 57 58 56 58 58 57 57 56 56 56 56 56 56 56 56 55 56 57 57 56 55 55 55 54 54 54 54 54 53 53 53 52 51 51 52 51 50 51 51 50 50 48 49
55 54 52 53 55 57 56 58 54 54 53 55 56 57 58 55 53 55 56 56 55 54 55 56 54 53 53 56 57 48 44 41 41 43 41 41 41 50 51 52 53 55 57 55 55 55 55 55 56 55 55 54 54 54 54 54 54 54 55 53 54 54 54 55 55 56 54 53 52 52 51 51 51 50 49 49 49 49 49 49 49 49 49 50 51
51 49 49 51 53 54 54 58 56 55 56 56 57 57 60 56 53 51 54 55 57 58 55 58 55 53 53 55 58 57 55 49 46 44 45 46 50 53 52 54 54 52 51 53 55 54 53 53 54 54 54 54 53 53 53 52 52 52 52 52 52 52 54 52 53 52 52 51 51 51 51 50 50 50 49 48 48 48 48 49 48 47 48 49 49
52 53 52 53 54 53 52 55 55 56 57 57 56 57 54 55 57 58 54 54 55 54 55 52 51 50 49 50 49 53 53 50 50 49 50 50 52 51 50 50 50 51 50 49 51 52 51 51 52 52 52 52 52 52 51 51 51 51 51 51 51 50 50 50 50 50 50 49 49 49 49 49 49 49 49 48 48 48 48 48 47 47 47 47 47
50 50 53 53 53 53 54 53 54 54 56 56 52 53 54 54 52 52 52 51 51 53 53 51 49 48 50 49 48 49 50 49 50 49 50 50 51 50 49 49 49 49 48 49 48 48 49 50 50 49 49 49 50 50 50 49 49 50 49 50 49 49 50 49 48 48 48 48 48 48 48 48 48 48 47 47 47 47 47 47 46 46 46 46 46
51 49 53 53 53 52 51 52 52 53 53 51 50 50 50 51 53 53 53 52 53 52 54 50 48 47 47 44 42 44 49 49 48 51 50 50 48 47 47 48 48 47 47 48 48 48 47 47 47 48 48 48 48 49 49 48 48 48 48 49 48 48 47 46 46 46 47 47 47 46 45 45 46 45 45 46 48 46 46 46 45 44 45 45 45
54 52 52 51 49 50 51 50 53 51 54 54 53 51 55 52 51 51 50 51 51 51 52 50 48 49 45 42 40 40 49 50 50 50 48 47 46 46 47 47 47 46 46 46 46 47 47 47 47 46 46 47 47 47 48 47 47 47 47 47 46 45 45 44 44 44 44 43 42 42 42 43 44 44 44 47 44 44 44 44 44 44 43 44 44
56 54 53 52 51 52 52 52 54 52 54 53 53 51 52 53 51 51 50 50 51 51 51 51 50 49 47 45 47 45 47 47 51 47 47 47 46 47 45 44 44 45 45 45 45 46 46 46 46 46 46 46 46 46 45 45 45 45 45 45 43 43 42 43 43 41 40 39 40 41 41 42 42 42 42 43 42 42 41 42 43 43 43 43 42
55 53 54 53 53 54 53 51 51 53 52 52 51 50 51 50 49 49 48 49 49 49 48 49 50 50 49 47 46 48 46 45 45 44 45 46 44 44 43 44 44 45 45 45 45 45 44 44 45 45 45 44 44 44 44 44 43 42 42 41 42 42 41 42 40 38 38 39 40 40 40 41 41 40 41 41 40 41 40 41 41 40 40 40 41
52 54 54 52 53 50 52 52 52 52 53 50 48 48 48 51 50 49 49 47 52 48 48 47 46 47 47 45 45 46 45 45 46 45 44 42 43 43 43 43 43 44 44 44 44 44 44 44 44 44 44 43 44 44 43 44 41 40 39 38 38 39 40 38 36 37 38 39 38 38 38 39 38 38 39 39 41 40 40 39 39 41 40 40 40
51 51 50 49 50 50 50 49 53 48 49 50 48 47 48 49 48 48 49 48 47 46 45 44 44 45 45 44 45 44 41 42 42 44 44 43 42 42 42 42 43 43 43 43 43 43 44 44 43 43 43 43 43 43 43 43 39 39 38 38 37 38 39 36 37 37 37 38 37 36 37 37 37 38 39 38 38 39 39 40 40 40 40 40 40
49 51 52 52 51 50 50 51 50 49 47 47 47 46 46 45 45 49 51 49 46 46 43 41 42 42 42 43 43 43 42 42 41 42 41 41 41 41 42 42 42 41 42 42 43 41 42 41 42 42 43 44 42 42 43 41 37 37 38 36 37 38 38 36 36 36 36 37 36 36 36 37 37 37 37 39 40 39 41 40 41 41 41 41 40
52 53 51 50 52 49 47 48 48 48 46 46 46 47 47 45 44 44 44 44 45 45 43 44 43 43 44 41 42 41 42 40 41 42 41 40 40 40 42 42 41 40 41 40 40 41 40 40 41 42 42 42 42 41 41 40 37 37 37 37 37 37 38 38 36 36 36 36 36 37 37 36 36 36 38 39 39 40 40 40 41 40 41 41 41
49 50 50 47 48 47 45 43 45 44 45 45 45 44 45 43 43 42 43 42 42 42 39 39 39 40 41 42 42 41 42 42 39 39 39 39 40 40 41 41 42 41 40 39 39 39 39 40 42 41 40 40 40 41 40 40 38 37 37 36 37 38 37 37 37 36 37 37 36 36 36 36 36 37 39 39 40 40 40 41 41 41 41 42 42
47 49 47 46 47 46 46 44 41 39 40 40 41 42 43 45 44 43 41 41 42 42 40 41 40 39 39 40 41 40 40 39 39 39 38 38 38 39 39 40 40 39 38 39 39 40 39 40 39 40 40 40 39 39 40 39 38 37 37 36 36 35 35 37 37 37 36 35 35 35 36 36 36 37 37 38 39 40 40 41 42 42 42 41 42
50 45 46 47 45 43 44 44 40 41 41 41 39 38 39 38 39 40 41 40 40 40 41 38 38 39 38 39 42 40 40 39 39 38 38 38 38 39 39 39 39 39 38 38 38 38 39 39 38 38 39 40 39 38 39 39 38 37 37 37 34 33 33 35 35 34 35 36 35 36 36 37 37 37 38 38 39 39 41 42 42 41 41 41 41